Regional Weather Roundup
Issued by NWS

Home | Current Version | Previous Version | Graphics & Text | Print | Product List | Glossary On
Versions: 1 2 3 4 5 6 7 8 9 10 11 12 13 14 15 16 17 18 19 20 21 22 23 24 25 26 27 28 29 30 31 32 33 34 35 36 37 38 39 40 41 42 43 44 45 46 47 48 49 50
000
ASUS43 KDMX 270807
RWRIA

WEATHER ROUNDUP FOR IOWA
NATIONAL WEATHER SERVICE DES MOINES IA
300 AM CDT WED MAY 27 2015

NOTE: "FAIR" INDICATES FEW OR NO CLOUDS BELOW 12,000 FEET WITH NO
SIGNIFICANT WEATHER AND/OR OBSTRUCTIONS TO VISIBILITY.

* - THESE STATIONS ARE NOT NWS STATIONS...THUS NOT UNDER NWS
QUALITY CONTROL.  THEY ALSO DO NOT REPORT WEATHER SUCH
AS PRECIPITATION OR FOG.

IAZ001>003-012>014-020>022-031>034-043>046-270900-
   NORTHWEST IOWA

CITY           SKY/WX    TMP DP  RH WIND       PRES   REMARKS
CARROLL *      CLOUDY    55  55 100 W7        29.92R
CHEROKEE *     MOCLDY    55  54  94 CALM      29.91F
DENISON *      CLEAR     54  54 100 CALM      29.92R
LE MARS *      CLEAR     52  52 100 S3        29.93S
ORANGE CITY *  CLEAR     55  52  88 CALM      29.92S
SHELDON *      CLEAR     55  54  94 W5        29.90S
SIOUX CITY     CLEAR     54  51  90 CALM      29.93R
SPENCER        CLOUDY    54  53  97 W6        29.91R FOG
STORM LAKE *   CLEAR     55  54  94 W9        29.93R
$$

IAZ055>058-069>071-079>083-090>094-270900-
   SOUTHWEST IOWA

CITY           SKY/WX    TMP DP  RH WIND       PRES   REMARKS
ATLANTIC *     PTCLDY    55  54  94 S3        29.93S
AUDUBON *      PTCLDY    55  52  88 CALM      29.94R
COUNCIL BLFS * CLEAR     57  57 100 SW7       29.95S
CRESTON *      CLEAR     57  55  94 NW12      29.93R
HARLAN  *      CLEAR     54  54 100 CALM      29.97R
LAMONI         CLEAR     61  56  83 W12       29.93R
RED OAK *      CLEAR     57  55  94 W7        29.95R
SHENANDOAH *   CLEAR     55  55 100 SW5       29.97R
$$

IAZ047>049-059>061-072>074-084-270900-
   CENTRAL IOWA

CITY           SKY/WX    TMP DP  RH WIND       PRES   REMARKS
AMES           CLOUDY    58  56  93 W7        29.90R
ANKENY *       CLOUDY    61  59  94 W7        29.89S
CHARITON *     MOCLDY    59  57  94 W8        29.91R
DES MOINES     CLOUDY    60  57  89 W6        29.90R
GRINNELL*      CLOUDY    61  59  94 W9        29.89S
KNOXVILLE *    CLEAR     57  55  94 W7        29.88S
MARSHALLTOWN   CLOUDY    59  58  96 NW5       29.87S
PELLA *        CLEAR     59  59 100 W6        29.89S
PERRY *        CLOUDY    59  57  94 W9        29.92R
$$

IAZ004>006-015-016-023>025-035-036-270900-
   NORTH CENTRAL IOWA

CITY           SKY/WX    TMP DP  RH WIND       PRES   REMARKS
ALGONA *       PTCLDY    57  57 100 W7        29.90R
CLARION *      CLOUDY    57 N/A N/A W7        29.89R
ESTHERVILLE    CLOUDY    54  53  97 SW8       29.88F
FORT DODGE *   CLOUDY    57  54  88 W3        29.91S
MASON CITY     LGT RAIN  57  56  96 W6        29.89R
FOREST CITY *  PTCLDY    54  54 100 W5        29.89R
IOWA FALLS *   CLOUDY    59  57  94 W5        29.90R
$$

IAZ007>011-017>019-026>030-037>042-050>054-066-270900-
   NORTHEAST IOWA

CITY           SKY/WX    TMP DP  RH WIND       PRES   REMARKS
CEDAR RAPIDS   PTCLDY    60  60 100 W13       29.85S
CHARLES CITY * CLOUDY    59  59 100 W8        29.87R
CLINTON *      CLEAR     61  57  88 W13       29.87R
DECORAH *      CLOUDY    59  57  94 VRB5      29.84R
DUBUQUE        MOCLDY    60  59  96 W6        29.83S
MONTICELLO *   CLOUDY    63  63 100 W5        29.84R
OELWEIN *      CLOUDY    59  57  94 NW10      29.86R
WATERLOO       CLOUDY    59  56  89 W7        29.86R
$$

IAZ064-065-067-068-078-270900-
   EAST CENTRAL IOWA

CITY           SKY/WX    TMP DP  RH WIND       PRES   REMARKS
DAVENPORT      CLEAR     62  59  90 SW12      29.87R
IOWA CITY      CLEAR     60  59  96 W6        29.87S
MT. PLEASANT * CLEAR     59  59 100 SW6       29.90R
MUSCATINE *    MOCLDY    63  59  88 SW7       29.88R
QUAD CITIES    CLEAR     63  59  87 W9        29.86R
$$

IAZ062-063-075>077-085>089-095>099-270900-
   SOUTHEAST IOWA

CITY           SKY/WX    TMP DP  RH WIND       PRES   REMARKS
BURLINGTON     PTCLDY    62  61  96 SW7       29.90R
FAIRFIELD *    CLEAR     61  57  88 W7        29.90R
FORT MADISON * PTCLDY    63  61  94 SW7       29.92R
KEOKUK *       CLOUDY    64  61  88 SW6       29.92R
OSKALOOSA *      N/A     59  57  94 W8        29.89R
CENTERVILLE *  PTCLDY    59  59 100 SW7       29.93R
OTTUMWA        CLEAR     58  57  97 SW6       29.89R
WASHINGTON *   PTCLDY    61  59  94 W9        29.90R
$$

ABBREVIATIONS USED IN REMARKS
   TC - TEMPERATURES IN CELSIUS
  WCI - WIND CHILL INDEX
   HX - HEAT INDEX
  VSB - VISIBILITY
$$




USA.gov is the U.S. government's official web portal to all federal, state and local government web resources and services.